EUTELSAT 9B

Last updated on Sun Nov 02 2025 00:02:49 GMT+0000 (Coordinated Universal Time)

1 41310U 16005A 25305.61233733 .00000073 00000+0 00000+0 0 9992 2 41310 0.0590 70.6621 0004049 175.4068 24.5419 1.00270848 35839
UTC large
Height (km)
Speed (km/s)
/
Latitude / Longitude
Inclination (degrees)
Orbital Period (minutes)
Azimuth
Elevation
Range (km)
Doppler Factor

Next 0 passes for location: London (51.5072 / 0.1276)

Sorry there are no passes over London.